Temperature
11 11 11 11 11 9 9 9 9 9 9 10 9 8 9 9 9 9 9 9 8 8 7 7 6 6 5 5 5 4 4 4 4 4 4 4 3 3 3 3 2 2 2 1
10 10 9 9 9 9 9 8 8 8 8 9 8 8 8 9 8 8 8 8 7 7 6 6 5 5 4 4 4 4 3 3 3 3 3 3 3 2 2 2 2 1 1 1
8 9 9 8 9 9 8 7 8 8 8 7 7 7 8 8 8 7 7 6 6 5 5 5 4 4 4 4 3 3 3 3 3 2 2 2 2 1 1 1 1 0 0 -0
7 9 8 10 10 9 8 8 7 7 7 7 7 8 8 8 7 7 6 5 5 4 4 4 4 3 3 3 3 3 2 2 2 2 1 1 1 0 0 -0 -1 -1 -1 -1
6 7 7 8 8 8 7 7 7 6 6 7 7 7 7 7 6 5 5 4 4 4 4 4 3 3 3 3 2 2 2 2 1 1 0 0 -0 -1 -1 -1 -1 -2 -2 -2
5 6 7 9 9 9 8 7 6 6 6 6 5 4 5 6 5 5 4 4 4 3 3 3 3 2 2 2 2 1 1 1 0 -0 -1 -1 -1 -1 -2 -2 -2 -3 -3 -3
5 6 7 8 8 9 8 8 7 7 7 6 5 5 5 5 4 4 4 3 3 3 3 3 2 2 2 1 1 1 0 0 -0 -1 -1 -2 -2 -2 -3 -3 -3 -3 -4 -4
5 5 7 8 7 7 7 7 7 7 6 6 5 5 4 4 4 3 3 3 3 3 3 2 2 1 1 1 0 0 -0 -0 -1 -1 -2 -3 -3 -3 -3 -4 -4 -4 -5 -5
6 7 7 7 7 7 8 7 7 6 6 5 4 4 4 3 3 3 3 2 2 2 2 2 1 1 0 0 -0 -1 -1 -1 -2 -2 -3 -3 -4 -4 -4 -5 -5 -6 -6 -6
4 5 6 6 7 7 7 6 6 5 5 4 4 3 3 3 3 2 2 2 2 1 1 1 1 1 -0 -1 -1 -1 -2 -2 -3 -3 -4 -4 -4 -5 -5 -6 -6 -6 -6 -6
4 5 5 5 6 6 6 5 5 4 4 3 3 3 3 2 2 2 2 2 1 1 1 1 0 0 -0 -1 -2 -2 -3 -3 -4 -4 -5 -5 -5 -6 -6 -6 -6 -6 -6 -6
5 5 4 5 6 5 5 4 4 4 3 3 3 2 2 2 2 2 1 1 1 1 0 0 -0 -0 -1 -2 -3 -3 -4 -4 -5 -5 -5 -6 -6 -6 -6 -6 -6 -6 -6 -6
6 6 6 6 5 5 4 4 3 3 3 3 2 2 2 2 2 1 1 1 0 0 -0 -0 -1 -1 -1 -2 -3 -4 -4 -5 -5 -6 -6 -7 -7 -7 -7 -6 -6 -6 -6 -6
6 5 4 4 4 4 3 3 3 3 2 2 2 2 2 1 1 1 1 0 -0 -0 -0 -1 -1 -1 -2 -3 -4 -4 -5 -5 -6 -6 -7 -7 -7 -7 -7 -7 -7 -6 -6 -6
4 4 4 4 3 3 3 3 3 2 2 2 2 2 1 1 1 1 0 -0 -0 -1 -1 -1 -2 -2 -2 -3 -4 -4 -5 -5 -6 -7 -7 -7 -7 -7 -7 -7 -7 -7 -7 -6
3 3 3 3 3 3 2 2 2 2 2 2 2 1 1 1 0 0 -0 -0 -1 -1 -1 -2 -2 -2 -3 -4 -4 -5 -5 -6 -7 -7 -7 -7 -7 -7 -7 -7 -7 -7 -7 -7
3 2 2 2 2 2 2 2 2 2 2 1 1 1 0 0 -0 -0 -0 -1 -1 -1 -2 -2 -2 -3 -3 -4 -5 -5 -6 -6 -7 -7 -7 -7 -7 -7 -7 -7 -7 -7 -7 -7
3 2 2 2 2 2 2 2 2 1 1 1 0 -0 -0 -0 -1 -1 -1 -1 -1 -1 -2 -2 -3 -3 -4 -4 -5 -6 -6 -7 -7 -7 -7 -7 -7 -7 -7 -7 -7 -7 -7 -7
2 2 2 2 2 1 1 1 1 1 0 0 -0 -1 -1 -1 -1 -1 -2 -2 -2 -2 -2 -3 -3 -4 -4 -5 -6 -6 -7 -7 -7 -7 -7 -7 -7 -7 -7 -7 -7 -7 -7 -7
2 2 1 1 1 1 1 1 0 0 0 -0 -1 -1 -1 -1 -2 -2 -2 -2 -2 -3 -3 -3 -4 -4 -5 -5 -6 -7 -7 -7 -8 -8 -8 -8 -8 -8 -8 -8 -8 -8 -8 -8
1 1 1 1 1 0 0 -0 -0 -0 -1 -1 -1 -2 -2 -2 -2 -3 -3 -3 -2 -3 -4 -4 -4 -5 -5 -6 -7 -7 -7 -7 -8 -8 -8 -8 -8 -8 -8 -8 -8 -8 -8 -8
0 0 0 0 -0 -0 -0 -0 -1 -1 -1 -1 -2 -2 -2 -3 -3 -3 -3 -4 -4 -4 -4 -5 -5 -5 -6 -7 -7 -7 -7 -8 -8 -8 -8 -8 -9 -9 -8 -8 -8 -8 -8 -8
-0 -0 -0 -1 -1 -1 -1 -1 -1 -2 -2 -2 -2 -3 -3 -3 -4 -4 -4 -4 -4 -5 -5 -5 -5 -6 -7 -7 -7 -8 -8 -8 -8 -8 -9 -9 -9 -9 -9 -8 -8 -8 -8 -9
-1 -1 -1 -1 -2 -2 -2 -2 -2 -2 -3 -3 -3 -3 -4 -4 -4 -4 -5 -5 -5 -5 -6 -6 -6 -7 -7 -8 -8 -8 -8 -8 -9 -9 -9 -9 -9 -9 -9 -9 -9 -9 -9 -9
-2 -2 -2 -2 -2 -2 -2 -3 -3 -3 -3 -3 -3 -4 -4 -5 -5 -5 -5 -5 -6 -6 -6 -6 -7 -7 -8 -8 -8 -8 -9 -9 -9 -9 -9 -9 -9 -9 -9 -9 -9 -9 -9 -9
-2 -2 -3 -3 -3 -3 -3 -4 -4 -4 -4 -5 -5 -5 -5 -5 -5 -6 -6 -6 -6 -7 -7 -7 -7 -8 -8 -8 -9 -9 -9 -9 -9 -9 -9 -9 -9 -9 -9 -9 -9 -9 -9 -8
-3 -3 -3 -3 -3 -4 -4 -5 -5 -5 -5 -6 -6 -6 -6 -6 -6 -7 -7 -7 -7 -7 -8 -8 -8 -8 -9 -9 -9 -9 -9 -9 -9 -9 -9 -9 -9 -9 -9 -9 -9 -8 -8 -8
Wind_Speed
6 3 4 7 8 9 10 10 11 10 11 10 7 5 3 3 2 2 2 3 4 5 6 7 7 7 7 7 7 7 8 9 10 10 10 10 11 11 11 11 12 12 12 13
3 1 3 6 11 12 12 10 10 10 10 4 1 3 3 2 2 1 2 4 6 7 7 7 7 7 7 7 8 7 8 10 11 11 11 11 11 12 12 12 12 12 13 14
4 2 4 9 11 11 8 7 9 10 7 3 3 3 2 2 1 1 3 5 6 7 7 7 7 6 7 8 8 8 10 11 11 11 12 12 13 12 13 13 12 13 13 13
3 2 8 9 2 6 6 4 6 4 4 5 3 1 2 2 2 2 4 5 6 7 7 7 6 6 7 8 8 9 10 11 11 12 13 13 13 13 13 12 13 13 14 14
5 5 9 9 5 7 7 5 4 7 5 3 1 3 2 1 1 2 4 5 6 6 6 6 8 8 8 9 9 10 11 12 12 12 14 14 15 15 14 14 14 14 14 15
5 5 8 8 3 4 6 4 5 7 6 4 3 1 3 2 3 4 5 4 5 6 6 7 8 8 8 10 11 12 13 13 12 12 14 15 16 16 14 13 15 15 15 14
7 7 9 7 3 6 5 6 7 7 6 5 5 5 3 3 4 4 5 6 6 7 7 8 9 8 10 11 12 13 13 13 13 12 13 15 15 14 14 15 15 15 16 15
7 7 10 3 7 8 6 5 7 6 5 5 4 3 3 4 5 6 6 7 7 7 9 9 9 9 11 13 14 13 13 14 14 13 13 13 14 15 14 14 15 15 15 15
10 8 2 1 5 4 6 6 5 5 4 3 2 3 3 4 5 6 6 7 7 8 10 10 9 9 12 14 14 14 14 14 14 14 12 12 13 15 15 13 13 14 14 15
5 6 3 2 4 4 4 5 4 3 2 2 2 3 4 5 5 6 7 7 7 9 10 12 11 10 11 13 13 13 15 15 14 14 14 12 11 12 12 13 13 14 14 15
4 3 3 3 4 4 4 3 3 2 2 2 3 3 4 5 6 7 7 8 8 9 11 14 13 12 12 12 12 13 14 14 14 13 14 14 12 11 13 12 15 17 14 14
7 7 7 6 6 5 5 3 3 3 2 2 3 5 5 6 7 8 8 9 10 11 11 13 13 13 12 11 10 12 14 13 12 12 13 13 14 14 18 20 25 26 25 23
3 3 4 4 5 5 4 3 3 3 4 3 4 5 6 6 7 8 9 10 11 12 13 13 13 14 13 11 10 11 13 14 13 13 13 13 14 15 16 17 21 23 24 25
4 5 4 4 4 4 4 3 2 2 3 4 5 6 6 7 8 10 11 12 12 12 13 13 13 14 13 11 11 12 13 16 15 13 13 13 14 14 14 15 16 13 16 23
3 4 5 5 5 4 3 3 1 2 4 5 5 7 8 9 11 12 12 12 11 12 13 13 13 15 12 11 12 13 13 11 12 12 12 13 13 13 13 14 14 14 13 15
4 5 6 5 4 3 2 2 2 4 5 6 7 9 10 10 11 12 12 11 11 13 14 13 15 14 12 12 12 12 11 19 19 14 13 13 13 13 13 13 13 13 13 12
6 5 4 3 3 2 3 4 5 6 7 9 10 11 11 11 12 13 13 11 11 13 13 14 15 14 12 12 12 11 11 14 20 16 12 13 13 13 13 12 12 13 12 14
5 5 5 5 4 3 4 5 6 8 8 10 10 10 11 12 13 14 14 12 12 12 12 13 13 12 11 11 11 10 11 12 12 13 13 12 13 12 12 12 13 14 12 13
4 4 2 2 3 4 5 7 8 8 9 10 10 11 12 12 12 13 12 12 13 15 12 9 16 14 11 13 16 10 11 13 13 13 12 16 16 12 12 12 12 13 12 12
3 1 1 3 4 4 7 8 9 10 10 10 11 12 13 13 12 12 12 12 11 11 11 13 13 10 10 12 18 11 11 12 14 13 13 12 13 13 12 12 12 12 11 11
1 2 4 5 6 7 8 9 9 10 11 10 11 12 14 14 12 10 11 13 11 10 11 17 11 9 10 13 18 10 10 12 13 12 13 13 13 13 12 12 12 12 11 10
3 4 6 7 7 9 9 8 9 10 11 11 11 12 12 13 12 11 10 11 12 15 12 9 8 14 17 20 10 9 11 12 12 12 12 12 12 13 13 13 12 11 10 9
5 6 7 8 9 9 10 10 10 10 11 12 12 12 13 12 10 11 13 8 8 15 13 9 15 22 25 14 8 10 12 12 12 12 12 12 12 12 12 13 12 10 10 9
7 7 8 8 8 8 11 11 10 10 11 12 12 12 12 11 10 9 9 15 18 20 11 15 22 24 22 9 9 10 11 12 12 12 12 12 11 11 11 11 11 10 9 10
8 8 8 9 9 9 10 11 10 10 11 10 11 11 9 8 10 11 9 11 16 18 11 15 21 22 14 9 10 11 11 12 13 13 11 11 12 11 11 11 10 10 9 9
8 8 8 9 9 9 8 8 9 10 10 11 11 9 8 8 9 9 9 10 12 16 12 10 11 14 10 10 11 11 11 13 14 12 12 12 12 12 11 11 12 10 9 8
8 8 7 8 8 8 7 8 10 11 10 11 12 11 10 9 9 9 10 10 10 10 10 9 9 9 10 10 10 11 11 11 11 11 11 11 11 11 11 12 10 9 8 8
Wind_Direction
239 224 189 217 216 198 201 205 218 236 234 250 253 232 201 166 127 97 47 6 344 327 316 316 319 319 317 313 313 314 314 309 301 297 294 293 293 291 290 288 286 283 284 283
266 251 225 254 245 227 227 227 234 256 266 252 160 131 142 156 132 89 349 328 322 318 315 313 311 308 308 307 308 311 306 300 298 299 298 296 295 294 293 291 288 286 284 285
246 309 354 272 242 220 214 209 200 227 234 148 123 139 180 190 147 9 314 309 309 307 302 302 300 298 300 298 303 305 300 298 298 298 296 294 294 294 293 293 291 289 286 285
173 130 240 244 219 176 183 222 201 177 147 144 155 232 252 184 145 320 311 307 306 305 303 301 297 297 294 297 300 299 298 296 295 295 295 296 295 295 294 293 293 292 290 288
159 219 270 286 238 177 177 223 191 158 150 139 66 20 335 153 106 302 295 292 289 291 291 295 298 297 302 302 301 299 297 295 295 295 298 300 299 298 297 297 296 292 291 290
157 197 242 248 196 153 120 227 204 160 161 164 122 54 268 273 329 314 310 306 303 303 302 301 300 303 304 301 302 299 297 296 296 296 297 298 298 298 297 296 295 296 294 290
187 220 256 248 194 133 177 236 169 165 173 175 185 206 241 310 316 314 313 310 310 309 305 299 301 305 300 299 297 295 296 298 298 296 294 296 296 296 297 297 297 296 295 293
172 204 249 208 145 179 194 139 149 165 178 191 217 254 288 305 308 315 314 308 309 306 302 300 300 299 297 297 297 298 299 300 300 298 297 301 298 299 297 297 299 299 298 297
193 211 268 164 168 151 136 143 161 169 182 183 215 256 287 294 299 299 296 296 295 294 297 298 295 291 293 297 301 304 303 303 303 302 298 296 297 300 303 300 299 300 300 300
219 246 222 140 126 123 125 140 147 144 153 163 209 256 279 284 286 291 291 292 293 297 298 299 298 292 287 295 301 303 304 305 305 305 304 301 297 297 299 300 299 299 299 301
224 220 149 215 193 161 129 109 105 105 141 182 212 254 261 271 280 282 286 287 288 289 290 292 294 293 292 295 300 302 303 304 305 303 303 304 300 296 297 290 291 298 299 300
214 200 183 205 193 165 155 162 166 168 183 209 213 240 260 268 272 276 281 284 286 286 286 290 293 295 296 294 295 299 305 307 306 305 304 304 305 303 298 297 300 302 301 300
195 156 156 151 143 148 158 170 176 188 205 230 245 245 255 266 270 274 279 282 282 285 288 292 294 295 296 295 293 292 296 302 304 304 304 304 305 306 307 307 304 303 304 305
156 126 125 144 156 157 155 159 167 196 231 240 251 260 264 268 274 279 281 281 282 286 289 290 292 293 293 293 293 292 294 299 303 301 301 301 301 302 302 305 308 307 306 307
136 134 144 138 133 139 145 149 161 262 269 272 263 267 272 275 279 281 283 284 286 286 288 290 292 293 294 293 294 295 298 300 300 300 299 299 300 300 300 300 300 302 304 306
131 109 119 130 144 156 167 189 231 265 273 277 281 279 275 273 277 281 283 283 285 289 292 293 293 293 295 294 295 297 297 301 307 305 303 302 301 300 300 300 300 301 303 305
142 146 150 158 178 201 220 234 245 260 272 276 276 279 282 285 286 286 285 281 277 280 284 287 289 292 292 291 292 298 299 302 305 305 301 300 300 300 299 299 300 301 300 303
161 161 167 175 192 228 259 265 265 268 269 270 277 282 282 283 286 289 290 292 292 289 284 279 282 291 290 291 295 295 297 299 300 301 302 301 300 300 301 301 301 301 303 305
130 138 154 194 225 241 258 269 272 271 274 278 280 281 280 279 281 284 288 291 293 296 292 281 297 302 294 297 304 296 296 299 303 302 301 302 304 301 300 300 300 301 303 305
86 83 314 287 277 263 268 273 277 279 279 278 281 285 287 285 283 285 288 286 279 276 283 292 295 290 290 295 302 297 297 302 304 304 303 302 301 302 301 300 300 301 302 302
358 309 296 289 286 280 274 275 280 283 285 283 281 283 286 288 286 285 288 293 287 278 285 296 300 295 298 300 304 301 302 303 303 302 302 302 302 301 301 300 300 301 302 302
295 290 289 287 285 286 284 281 280 283 287 286 283 282 286 289 289 284 272 274 285 294 299 289 289 298 306 309 304 303 303 303 302 302 301 301 300 300 301 301 301 301 301 301
282 280 282 282 282 284 288 287 282 282 282 282 283 284 284 284 286 289 294 286 285 297 303 290 299 306 311 313 305 304 303 303 302 302 301 299 298 298 299 301 300 299 299 298
283 283 282 283 286 287 288 287 284 282 278 280 279 276 279 286 287 274 273 291 301 302 299 298 306 310 314 312 303 302 301 302 301 300 298 299 299 298 297 298 299 298 296 296
279 280 282 284 285 281 280 286 290 288 286 285 282 279 274 269 276 287 287 289 297 303 298 301 307 310 311 300 300 300 300 299 300 303 302 302 300 299 298 298 298 299 297 294
275 276 275 271 270 276 280 284 288 290 291 293 292 288 283 280 278 283 287 287 287 297 299 297 298 302 301 298 298 299 299 302 303 302 300 300 299 299 298 299 299 298 295 293
276 275 277 281 277 268 269 276 282 286 286 287 291 292 290 289 288 288 289 292 293 294 295 295 296 297 298 298 299 299 299 300 300 299 299 299 298 298 298 297 297 296 294 292
Height
1506 1505 1507 1507 1507 1511 1514 1512 1513 1506 1504 1498 1498 1498 1498 1499 1500 1500 1501 1501 1500 1499 1497 1495 1492 1489 1486 1482 1479 1475 1471 1467 1462 1458 1453 1448 1443 1437 1432 1427 1422 1416 1411 1406
1506 1505 1507 1508 1504 1504 1504 1504 1503 1500 1498 1494 1495 1496 1497 1498 1498 1499 1499 1499 1497 1496 1493 1490 1487 1484 1481 1477 1474 1470 1465 1461 1456 1451 1445 1440 1434 1429 1423 1418 1412 1407 1401 1396
1511 1509 1506 1507 1494 1494 1495 1494 1496 1497 1494 1494 1495 1495 1496 1496 1497 1497 1497 1496 1494 1492 1489 1486 1483 1480 1476 1472 1468 1464 1459 1455 1449 1443 1437 1432 1426 1420 1414 1408 1402 1396 1391 1386
1513 1510 1512 1492 1485 1486 1489 1489 1490 1490 1492 1492 1494 1494 1495 1495 1495 1495 1494 1493 1491 1488 1485 1482 1479 1475 1471 1467 1463 1458 1453 1448 1442 1436 1429 1423 1417 1411 1405 1399 1393 1386 1381 1375
1515 1512 1502 1490 1483 1485 1488 1488 1487 1489 1490 1492 1493 1493 1493 1493 1494 1493 1492 1490 1487 1485 1481 1478 1474 1470 1466 1462 1457 1452 1446 1440 1435 1428 1422 1415 1409 1402 1396 1390 1383 1377 1371 1366
1512 1509 1502 1485 1479 1478 1483 1488 1486 1486 1488 1490 1491 1495 1494 1492 1491 1489 1488 1486 1483 1480 1477 1474 1470 1465 1460 1455 1450 1445 1439 1433 1427 1421 1415 1408 1401 1394 1388 1381 1374 1368 1362 1357
1506 1505 1492 1479 1477 1479 1487 1482 1482 1484 1486 1488 1489 1490 1490 1489 1487 1486 1484 1482 1479 1476 1473 1469 1465 1460 1454 1449 1444 1438 1432 1425 1419 1414 1407 1400 1393 1386 1380 1372 1365 1359 1353 1347
1499 1502 1490 1474 1476 1478 1477 1478 1480 1482 1484 1485 1486 1486 1486 1485 1484 1482 1480 1478 1475 1471 1468 1464 1460 1454 1448 1443 1437 1431 1424 1417 1411 1405 1399 1392 1385 1377 1371 1365 1357 1350 1344 1337
1480 1478 1473 1472 1472 1473 1475 1477 1479 1480 1482 1483 1483 1483 1482 1481 1480 1478 1476 1473 1470 1466 1462 1458 1454 1449 1442 1436 1430 1423 1416 1409 1402 1396 1390 1384 1377 1369 1363 1357 1350 1343 1337 1330
1476 1473 1471 1471 1472 1473 1474 1476 1477 1478 1479 1480 1480 1480 1479 1478 1476 1474 1472 1469 1465 1461 1456 1451 1447 1442 1436 1430 1423 1415 1408 1401 1394 1387 1380 1374 1369 1363 1356 1350 1343 1337 1331 1325
1472 1470 1471 1471 1471 1472 1473 1474 1475 1476 1477 1477 1477 1477 1476 1474 1472 1470 1467 1464 1460 1455 1450 1445 1440 1434 1429 1423 1416 1408 1401 1394 1387 1380 1373 1366 1360 1356 1350 1344 1339 1333 1326 1320
1465 1463 1465 1466 1468 1470 1471 1472 1473 1474 1474 1474 1474 1473 1472 1470 1468 1465 1462 1458 1454 1449 1443 1438 1432 1427 1422 1416 1409 1401 1393 1386 1379 1373 1366 1359 1352 1346 1341 1337 1332 1326 1321 1315
1459 1460 1462 1464 1466 1468 1469 1470 1471 1471 1472 1472 1471 1470 1468 1466 1463 1460 1456 1452 1447 1442 1436 1431 1425 1419 1414 1408 1401 1395 1388 1380 1373 1366 1360 1353 1347 1340 1332 1326 1323 1318 1313 1308
1457 1459 1461 1463 1464 1466 1467 1468 1469 1469 1469 1469 1468 1466 1464 1461 1457 1454 1450 1445 1440 1434 1429 1423 1417 1412 1406 1400 1394 1387 1381 1374 1367 1360 1354 1347 1341 1335 1328 1321 1314 1308 1304 1300
1456 1458 1459 1461 1463 1464 1465 1466 1466 1466 1466 1465 1463 1461 1458 1454 1450 1447 1442 1438 1432 1427 1421 1416 1409 1404 1399 1392 1386 1379 1373 1366 1360 1353 1348 1342 1335 1329 1323 1317 1310 1303 1297 1292
1455 1456 1458 1459 1461 1462 1463 1463 1463 1462 1461 1459 1457 1455 1451 1448 1443 1439 1435 1430 1425 1418 1413 1408 1402 1396 1390 1384 1378 1371 1365 1360 1354 1347 1341 1335 1329 1323 1317 1311 1305 1299 1293 1287
1453 1455 1456 1458 1459 1459 1460 1460 1459 1458 1456 1453 1451 1448 1444 1440 1435 1431 1426 1422 1417 1411 1406 1401 1394 1388 1383 1377 1371 1364 1358 1351 1346 1340 1334 1328 1323 1317 1311 1305 1299 1294 1288 1283
1452 1453 1454 1455 1456 1456 1456 1455 1454 1452 1450 1447 1444 1440 1436 1432 1427 1422 1418 1413 1407 1402 1398 1393 1387 1380 1375 1370 1364 1357 1351 1345 1339 1334 1328 1322 1316 1311 1305 1300 1294 1288 1282 1277
1450 1452 1453 1453 1453 1453 1452 1451 1449 1446 1444 1440 1437 1432 1428 1424 1419 1414 1409 1404 1399 1393 1388 1384 1379 1373 1368 1362 1357 1350 1344 1338 1332 1327 1321 1315 1310 1304 1299 1294 1288 1283 1277 1272
1449 1450 1450 1450 1450 1449 1447 1445 1442 1439 1436 1433 1428 1424 1419 1415 1411 1406 1401 1396 1392 1387 1381 1376 1370 1365 1360 1354 1349 1343 1338 1332 1326 1319 1314 1308 1303 1298 1293 1288 1282 1277 1272 1267
1447 1447 1447 1446 1444 1443 1441 1438 1435 1432 1428 1425 1421 1415 1411 1406 1402 1398 1392 1386 1382 1379 1374 1368 1363 1358 1352 1347 1342 1337 1331 1325 1319 1313 1307 1302 1297 1291 1287 1282 1277 1272 1267 1262
1444 1443 1442 1440 1438 1436 1434 1431 1428 1424 1420 1417 1412 1408 1403 1398 1394 1389 1385 1380 1375 1371 1365 1360 1356 1350 1345 1340 1335 1330 1324 1318 1312 1307 1301 1296 1291 1285 1280 1276 1271 1266 1262 1257
1439 1438 1436 1434 1432 1429 1426 1424 1421 1417 1412 1408 1404 1400 1395 1391 1386 1381 1375 1372 1368 1363 1358 1353 1348 1343 1338 1333 1328 1322 1316 1311 1306 1300 1295 1290 1285 1280 1275 1270 1265 1261 1256 1252
1434 1432 1430 1428 1425 1421 1418 1415 1412 1408 1404 1400 1396 1392 1388 1382 1377 1374 1369 1364 1360 1355 1350 1346 1341 1336 1331 1325 1320 1315 1309 1304 1299 1293 1289 1284 1279 1274 1269 1265 1260 1256 1251 1247
1428 1426 1423 1421 1417 1414 1411 1407 1403 1399 1395 1391 1387 1383 1380 1376 1371 1365 1361 1357 1352 1347 1342 1338 1333 1328 1323 1318 1313 1308 1302 1297 1292 1288 1282 1277 1272 1268 1263 1259 1255 1251 1247 1243
1421 1419 1416 1414 1411 1407 1403 1399 1395 1391 1387 1382 1377 1374 1371 1367 1363 1358 1353 1349 1344 1339 1335 1330 1325 1320 1316 1311 1306 1301 1295 1290 1285 1281 1276 1271 1267 1262 1258 1254 1250 1246 1242 1238
1414 1412 1409 1405 1403 1400 1396 1392 1387 1383 1379 1375 1369 1365 1362 1358 1354 1350 1345 1341 1336 1332 1327 1322 1318 1313 1308 1304 1299 1294 1289 1284 1279 1274 1270 1265 1261 1257 1253 1249 1245 1241 1238 1234